| time (UTC) | temp C | wind direction | speed KPH | gust KPH | rain 1hr cm | rain 24hr cm | rain mn cm | humidity % | barometer mb |
| 20260506023546 | 8 | 2 | 6.4 | 11.3 | 10.36 | 24.64 | 4.80 | 98 | |
| 20260506022534 | 8 | 345 | 4.8 | 14.5 | 10.44 | 24.64 | 4.62 | 98 | |
| 20260506021548 | 8 | 357 | 4.8 | 9.7 | 10.39 | 24.64 | 4.45 | 98 | |
| 20260506020532 | 8 | 342 | 4.8 | 9.7 | 10.39 | 24.64 | 4.29 | 98 | |
| 20260506015710 | 8 | 331 | 6.4 | 11.3 | 10.41 | 24.64 | 4.11 | 98 | |
| 20260506014550 | 8 | 341 | 3.2 | 9.7 | 10.46 | 24.64 | 3.94 | 98 | |
| 20260506013524 | 8 | 351 | 6.4 | 11.3 | 10.46 | 24.64 | 3.76 | 98 | |
| 20260506012532 | 8 | 8 | 6.4 | 16.1 | 10.36 | 24.64 | 3.58 | 98 | |
| 20260506011524 | 8 | 347 | 4.8 | 11.3 | 10.36 | 24.64 | 3.40 | 98 | |
| 20260506010532 | 8 | 330 | 3.2 | 9.7 | 10.41 | 24.61 | 3.25 | 98 | |
| 20260506005524 | 8 | 343 | 3.2 | 8.0 | 10.44 | 24.61 | 3.07 | 98 | |
| 20260506004528 | 8 | 347 | 4.8 | 9.7 | 10.39 | 24.61 | 2.90 | 98 | |
| 20260506003524 | 8 | 359 | 3.2 | 6.4 | 10.31 | 24.61 | 2.72 | 98 | |
| 20260506002554 | 8 | 347 | 3.2 | 6.4 | 10.41 | 24.61 | 2.54 | 98 | |
| 20260506001528 | 8 | 348 | 4.8 | 11.3 | 10.36 | 24.61 | 23.88 | 98 | |
| 20260506000532 | 8 | 344 | 4.8 | 9.7 | 10.24 | 24.61 | 22.10 | 98 | |
| 20260505235524 | 8 | 345 | 4.8 | 8.0 | 10.16 | 24.61 | 20.32 | 98 | |
| 20260505234524 | 8 | 351 | 6.4 | 11.3 | 10.26 | 24.61 | 18.64 | 98 | |
| 20260505233524 | 8 | 358 | 4.8 | 9.7 | 10.21 | 24.61 | 16.94 | 98 | |
| 20260505232532 | 9 | 356 | 6.4 | 12.9 | 10.03 | 24.61 | 15.19 | 98 | |
| 20260505231544 | 9 | 343 | 4.8 | 11.3 | 10.11 | 24.61 | 13.49 | 98 | |
| 20260505230533 | 9 | 4 | 6.4 | 11.3 | 10.16 | 24.61 | 11.86 | 97 | |
| 20260505225524 | 9 | 350 | 4.8 | 11.3 | 10.13 | 24.61 | 10.13 | 97 | |
| 20260505224521 | 9 | 356 | 6.4 | 11.3 | 10.03 | 24.61 | 8.38 | 97 | |
| 20260505223523 | 9 | 347 | 4.8 | 8.0 | 10.13 | 24.61 | 6.71 | 97 | |
| 20260505222532 | 9 | 348 | 4.8 | 9.7 | 10.21 | 24.61 | 5.13 | 97 | |
| 20260505221524 | 9 | 349 | 4.8 | 11.3 | 10.21 | 24.61 | 3.38 | 97 | |
| 20260505220532 | 9 | 347 | 4.8 | 9.7 | 10.16 | 24.64 | 17.07 | 97 | |
| 20260505215549 | 9 | 346 | 4.8 | 9.7 | 10.13 | 24.64 | 24.64 | 97 | |
| 20260505214534 | 10 | 351 | 6.4 | 14.5 | 10.24 | 24.61 | 24.46 | 97 | |
| 20260505213524 | 10 | 359 | 4.8 | 14.5 | 10.21 | 24.61 | 24.28 | 97 | |
| 20260505212532 | 10 | 14 | 4.8 | 11.3 | 10.13 | 24.61 | 24.10 | 97 | |
| 20260505211524 | 10 | 352 | 6.4 | 12.9 | 10.16 | 24.61 | 23.95 | 96 | |
| 20260505210532 | 10 | 357 | 4.8 | 11.3 | 10.24 | 24.61 | 23.77 | 96 | |
| 20260505205525 | 10 | 340 | 6.4 | 16.1 | 10.31 | 24.61 | 23.62 | 96 | |
| 20260505204552 | 10 | 357 | 6.4 | 17.7 | 10.19 | 24.61 | 23.44 | 96 | |
| 20260505203606 | 10 | 355 | 4.8 | 11.3 | 10.19 | 24.61 | 23.27 | 95 | |
| 20260505202532 | 10 | 354 | 8.0 | 19.3 | 10.34 | 24.61 | 23.11 | 95 | |
| 20260505201524 | 10 | 340 | 6.4 | 11.3 | 10.34 | 24.59 | 22.94 | 94 | |
| 20260505200527 | 10 | 348 | 8.0 | 16.1 | 10.26 | 24.59 | 22.76 | 94 | |
| 20260505195524 | 10 | 3 | 6.4 | 14.5 | 10.31 | 24.59 | 22.58 | 93 | |
| 20260505194533 | 10 | 358 | 6.4 | 14.5 | 10.39 | 24.59 | 22.40 | 93 | |
| 20260505193525 | 10 | 357 | 6.4 | 11.3 | 10.36 | 24.59 | 22.25 | 93 | |
| 20260505192531 | 10 | 8 | 8.0 | 16.1 | 10.26 | 24.59 | 22.07 | 93 | |
| 20260505191523 | 10 | 345 | 6.4 | 14.5 | 10.26 | 24.59 | 21.89 | 93 | |
| 20260505190710 | 10 | 360 | 8.0 | 12.9 | 10.34 | 24.59 | 21.72 | 93 | |
| 20260505185524 | 10 | 1 | 6.4 | 14.5 | 10.31 | 24.59 | 21.54 | 93 | |
| 20260505184532 | 10 | 12 | 4.8 | 8.0 | 10.21 | 24.59 | 21.36 | 93 | |
| 20260505183524 | 10 | 1 | 4.8 | 9.7 | 10.24 | 24.59 | 21.21 | 93 | |
| 20260505182533 | 10 | 354 | 4.8 | 11.3 | 10.34 | 24.59 | 21.03 | 93 | |
| 20260505181524 | 10 | 8 | 4.8 | 11.3 | 10.31 | 24.59 | 20.85 | 93 | |
| 20260505180519 | 10 | 1 | 4.8 | 9.7 | 10.21 | 24.59 | 20.70 | 93 | |
| 20260505175525 | 11 | 0 | 3.2 | 8.0 | 10.24 | 24.59 | 20.52 | 93 | |
| 20260505174532 | 11 | 17 | 6.4 | 11.3 | 10.26 | 24.56 | 20.35 | 93 | |
| 20260505173525 | 11 | 1 | 8.0 | 16.1 | 10.26 | 24.56 | 20.17 | 93 | |
| 20260505172534 | 11 | 352 | 6.4 | 12.9 | 10.11 | 24.56 | 20.02 | 93 | |
| 20260505171523 | 11 | 359 | 6.4 | 16.1 | 10.08 | 24.56 | 19.84 | 93 | |
| 20260505170533 | 11 | 358 | 8.0 | 14.5 | 10.21 | 24.56 | 19.66 | 93 | |
| 20260505165524 | 11 | 359 | 8.0 | 14.5 | 10.19 | 24.56 | 19.48 | 94 | |
| 20260505164532 | 11 | 1 | 8.0 | 16.1 | 10.08 | 24.56 | 19.33 | 94 | |
| 20260505163524 | 11 | 350 | 8.0 | 14.5 | 10.08 | 24.56 | 19.15 | 93 | |
| 20260505162532 | 11 | 0 | 9.7 | 16.1 | 10.21 | 24.56 | 19.00 | 93 | |
| 20260505161524 | 11 | 355 | 8.0 | 14.5 | 10.24 | 24.56 | 18.82 | 93 | |
| 20260505160533 | 11 | 6 | 6.4 | 12.9 | 10.08 | 24.56 | 18.64 | 93 | |
| 20260505152548 | 11 | 357 | 9.7 | 20.9 | 10.19 | 24.56 | 17.96 | 94 | |
| 20260505151524 | 11 | 4 | 6.4 | 16.1 | 10.21 | 24.56 | 17.81 | 94 | |
| 20260505150532 | 11 | 17 | 4.8 | 14.5 | 10.34 | 24.56 | 17.63 | 94 | |
| 20260505140533 | 11 | 354 | 4.8 | 12.9 | 10.34 | 24.54 | 16.61 | 94 | |
| 20260505124533 | 11 | 5 | 6.4 | 11.3 | 10.26 | 24.51 | 15.21 | 94 | |
| 20260505123524 | 11 | 34 | 6.4 | 11.3 | 10.24 | 24.49 | 15.04 | 94 | |
| 20260505122532 | 10 | 21 | 6.4 | 14.5 | 10.34 | 24.49 | 14.88 | 95 | |
| 20260505121525 | 10 | 357 | 8.0 | 19.3 | 10.31 | 24.49 | 14.71 | 95 | |
| 20260505120533 | 10 | 2 | 8.0 | 12.9 | 10.21 | 24.49 | 14.53 | 95 | |
| 20260505115525 | 10 | 12 | 9.7 | 19.3 | 10.19 | 24.49 | 14.35 | 96 | |
| 20260505114533 | 10 | 355 | 8.0 | 12.9 | 10.31 | 24.49 | 14.20 | 96 | |
| 20260505113523 | 10 | 0 | 8.0 | 14.5 | 10.34 | 24.49 | 14.02 | 97 | |
| 20260505112617 | 10 | 358 | 8.0 | 14.5 | 10.19 | 24.49 | 13.84 | 97 | |
| 20260505111525 | 10 | 16 | 8.0 | 14.5 | 10.13 | 24.49 | 13.67 | 97 | |
| 20260505110536 | 10 | 352 | 8.0 | 14.5 | 10.24 | 24.46 | 13.51 | 97 | |
| 20260505101525 | 10 | 12 | 6.4 | 11.3 | 10.34 | 24.49 | 12.65 | 98 | |
| 20260505100531 | 10 | 24 | 6.4 | 17.7 | 10.19 | 24.49 | 12.47 | 98 | |
| 20260505095524 | 10 | 358 | 8.0 | 14.5 | 10.21 | 24.49 | 12.29 | 98 | |
| 20260505094521 | 10 | 6 | 8.0 | 16.1 | 10.21 | 24.46 | 12.14 | 98 | |
| 20260505093524 | 10 | 18 | 6.4 | 14.5 | 10.21 | 24.46 | 11.96 | 98 | |
| 20260505092532 | 10 | 358 | 6.4 | 16.1 | 10.19 | 24.49 | 11.79 | 98 | |
| 20260505091519 | 10 | 3 | 6.4 | 12.9 | 10.08 | 24.49 | 11.61 | 98 | |
| 20260505090556 | 10 | 357 | 6.4 | 14.5 | 10.24 | 24.49 | 11.46 | 98 | |
| 20260505085527 | 10 | 2 | 4.8 | 11.3 | 10.24 | 24.49 | 11.28 | 98 | |
| 20260505084557 | 10 | 4 | 6.4 | 14.5 | 10.19 | 24.49 | 11.13 | 98 | |
| 20260505083523 | 10 | 2 | 8.0 | 11.3 | 10.21 | 24.49 | 10.95 | 98 | |
| 20260505082531 | 10 | 7 | 6.4 | 12.9 | 10.31 | 24.46 | 10.77 | 98 | |
| 20260505081524 | 10 | 339 | 6.4 | 16.1 | 10.39 | 24.49 | 10.62 | 98 | |
| 20260505080532 | 10 | 345 | 6.4 | 12.9 | 10.34 | 24.49 | 10.44 | 98 | |
| 20260505075523 | 10 | 358 | 6.4 | 16.1 | 10.31 | 24.46 | 10.26 | 98 | |
| 20260505074533 | 10 | 353 | 4.8 | 11.3 | 10.44 | 24.46 | 10.08 | 98 | |
| 20260505073524 | 11 | 23 | 4.8 | 12.9 | 10.44 | 24.46 | 9.93 | 98 | |
| 20260505072554 | 11 | 356 | 4.8 | 9.7 | 10.34 | 24.46 | 9.75 | 98 | |
| 20260505071525 | 11 | 354 | 6.4 | 11.3 | 10.34 | 24.46 | 9.58 | 98 | |
| 20260505070528 | 11 | 18 | 3.2 | 9.7 | 10.36 | 24.43 | 9.40 | 98 | |
| 20260505065524 | 11 | 10 | 6.4 | 16.1 | 10.39 | 24.43 | 9.22 | 98 | |
| 20260505064558 | 11 | 23 | 6.4 | 12.9 | 10.31 | 24.43 | 9.04 | 98 | |
| 20260505063529 | 11 | 38 | 4.8 | 9.7 | 10.26 | 24.43 | 8.86 | 98 | |
| 20260505062531 | 11 | 11 | 4.8 | 11.3 | 10.36 | 24.43 | 8.71 | 98 | |
| 20260505061525 | 11 | 33 | 8.0 | 14.5 | 10.36 | 24.41 | 8.53 | 99 | |
| 20260505060524 | 11 | 6 | 4.8 | 9.7 | 10.34 | 24.41 | 8.36 | 99 | |
| 20260505055525 | 11 | 358 | 4.8 | 9.7 | 10.31 | 24.41 | 8.18 | 99 | |
| 20260505054532 | 11 | 9 | 6.4 | 11.3 | 10.34 | 24.41 | 8.03 | 99 | |
| 20260505053524 | 11 | 9 | 6.4 | 11.3 | 10.36 | 24.41 | 7.85 | 98 | |
| 20260505052532 | 11 | 353 | 6.4 | 11.3 | 10.24 | 24.41 | 7.67 | 98 | |
| 20260505051525 | 12 | 356 | 6.4 | 11.3 | 10.24 | 24.41 | 7.49 | 98 | |
| 20260505050520 | 12 | 347 | 4.8 | 11.3 | 10.24 | 24.38 | 7.32 | 98 | |
| 20260505041527 | 12 | 212 | 1.6 | 3.2 | 10.19 | 24.38 | 6.48 | 98 | |
| 20260505040531 | 12 | 217 | 1.6 | 4.8 | 10.08 | 24.38 | 6.30 | 98 | |
| 20260505035523 | 12 | 230 | 3.2 | 8.0 | 10.11 | 24.38 | 6.12 | 98 | |
| 20260505034536 | 12 | 217 | 1.6 | 6.4 | 10.16 | 24.38 | 5.97 | 98 | |
| 20260505033523 | 12 | 208 | 1.6 | 3.2 | 10.16 | 24.41 | 5.79 | 98 | |
| 20260505032533 | 12 | 214 | 1.6 | 4.8 | 10.11 | 24.41 | 5.61 | 98 | |
| 20260505031525 | 12 | 211 | 1.6 | 3.2 | 10.11 | 24.41 | 5.46 | 98 | |
| 20260505030532 | 12 | 0.0 | 0.0 | 10.26 | 24.41 | 5.28 | 98 | ||
| 20260505025526 | 12 | 0.0 | 0.0 | 10.19 | 24.41 | 5.11 | 98 | ||
| 20260505024533 | 12 | 200 | 0.0 | 1.6 | 10.13 | 24.41 | 4.95 | 98 |